Location: Le Castellard
(44.1862°N, 6.1301°E)
Time: 19:51:35
(UTC+00:00)

Cosmos 2056 Rocket - Pass Details

Date: 18 January 2020
Orbit: 741 x 801 km, 74.0° (Epoch: 28 February)

Event Time Altitude Azimuth Distance (km) Brightness Sun altitude
Rises 06:17:00 0° 342° (NNW) 3,309 6.4 -8.9°
Reaches altitude 10° 06:19:27 10° 346° (NNW) 2,380 5.7 -8.5°
Maximum altitude 06:24:49 60° 66° (ENE) 912 4.2 -7.6°
Drops below altitude 10° 06:30:10 10° 147° (SSE) 2,370 7.0 -6.7°
Sets 06:32:35 0° 151° (SSE) 3,294 7.7 -6.3°
